Date,Installs,Update checks
2014-07-04,4,
2014-07-05,0,
2014-07-06,7,
2014-07-07,11,
2014-07-08,6,
2014-07-09,25,
2014-07-10,18,
2014-07-11,15,
2014-07-12,26,
2014-07-13,20,
2014-07-14,14,
2014-07-15,8,
2014-07-16,10,
2014-07-17,14,
2014-07-18,4,
2014-07-19,10,
2014-07-20,5,
2014-07-21,7,
2014-07-22,9,
2014-07-23,1,
2014-07-24,1,
2014-07-25,1,
2014-07-26,0,
2014-07-27,5,
2014-07-28,4,
2014-07-29,1,
2014-07-30,0,
2014-07-31,0,
2014-08-01,0,
2014-08-02,0,
2014-08-03,0,
2014-08-04,0,
2014-08-05,1,
2014-08-06,1,
2014-08-07,2,
2014-08-08,1,
2014-08-09,0,
2014-08-10,0,
2014-08-11,0,
2014-08-12,2,
2014-08-13,4,
2014-08-14,0,
2014-08-15,2,
2014-08-16,1,
2014-08-17,1,
2014-08-18,1,
2014-08-19,2,
2014-08-20,1,
2014-08-21,2,
2014-08-22,4,
2014-08-23,1,
2014-08-24,1,
2014-08-25,0,
2014-08-26,1,
2014-08-27,1,
2014-08-28,0,
2014-08-29,1,
2014-08-30,2,
2014-08-31,1,
2014-09-01,0,
2014-09-02,1,
2014-09-03,2,
2014-09-04,1,
2014-09-05,1,
2014-09-06,1,
2014-09-07,1,
2014-09-08,0,
2014-09-09,0,
2014-09-10,1,
2014-09-11,2,
2014-09-12,1,
2014-09-13,0,
2014-09-14,0,
2014-09-15,2,
2014-09-16,1,
2014-09-17,0,
2014-09-18,0,
2014-09-19,1,
2014-09-20,3,
2014-09-21,0,
2014-09-22,0,
2014-09-23,0,
2014-09-24,0,
2014-09-25,1,
2014-09-26,0,
2014-09-27,1,
2014-09-28,0,
2014-09-29,1,
2014-09-30,4,
2014-10-01,3,
2014-10-02,3,
2014-10-03,1,
2014-10-04,1,
2014-10-05,1,
2014-10-06,1,
2014-10-07,1,
2014-10-08,0,
2014-10-09,1,
2014-10-10,0,
2014-10-11,1,
2014-10-12,0,
2014-10-13,0,
2014-10-14,1,
2014-10-15,4,
2014-10-16,1,
2014-10-17,1,
2014-10-18,0,
2014-10-19,2,
2014-10-20,4,
2014-10-21,2,
2014-10-22,0,
2014-10-23,2,264
2014-10-24,8,130
2014-10-25,35,281
2014-10-26,29,209
2014-10-27,11,331
2014-10-28,25,267
2014-10-29,31,405
2014-10-30,798,1234
2014-10-31,328,1899
2014-11-01,202,1915
2014-11-02,190,2199
2014-11-03,115,2501
2014-11-04,63,2405
2014-11-05,61,2631
2014-11-06,41,2467
2014-11-07,46,2633
2014-11-08,40,2344
2014-11-09,51,2434
2014-11-10,41,2725
2014-11-11,29,2565
2014-11-12,30,2746
2014-11-13,24,2607
2014-11-14,27,2640
2014-11-15,19,2437
2014-11-16,19,2383
2014-11-17,10,2776
2014-11-18,1,2392
2014-11-19,1,2433
2014-11-20,12,2463
2014-11-21,3,2449
2014-11-22,4,2225
2014-11-23,1,2278
2014-11-24,2,2554
2014-11-25,5,2340
2014-11-26,2,2481
2014-11-27,4,2326
2014-11-28,7,2376
2014-11-29,6,2165
2014-11-30,2,2169
2014-12-01,2,2449
2014-12-02,1,2303
2014-12-03,2,2454
2014-12-04,6,2237
2014-12-05,2,2322
2014-12-06,3,2090
2014-12-07,6,2092
2014-12-08,3,2378
2014-12-09,3,2237
2014-12-10,3,2347
2014-12-11,5,2250
2014-12-12,3,2264
2014-12-13,3,2033
2014-12-14,3,2103
2014-12-15,4,2323
2014-12-16,3,2189
2014-12-17,3,2251
2014-12-18,1,2207
2014-12-19,3,2180
2014-12-20,3,2039
2014-12-21,5,1936
2014-12-22,2,2283
2014-12-23,3,1924
2014-12-24,2,1917
2014-12-25,1,1828
2014-12-26,4,1926
2014-12-27,2,1887
2014-12-28,2,1927
2014-12-29,3,2072
2014-12-30,4,1933
2014-12-31,5,1688
2015-01-01,14,1924
2015-01-02,18,1878
2015-01-03,8,1979
2015-01-04,5,1849
2015-01-05,5,2175
2015-01-06,7,1939
2015-01-07,6,2149
2015-01-08,7,1987
2015-01-09,6,2088
2015-01-10,7,1859
2015-01-11,5,1935
2015-01-12,2,2157
2015-01-13,0,1994
2015-01-14,2,2093
2015-01-15,4,1966
2015-01-16,6,2033
2015-01-17,11,1818
2015-01-18,2,1864
2015-01-19,4,2071
2015-01-20,4,1949
2015-01-21,2,2036
2015-01-22,1,1970
2015-01-23,3,2010
2015-01-24,1,1838
2015-01-25,1,1809
2015-01-26,5,2043
2015-01-27,4,1870
2015-01-28,3,2046
2015-01-29,4,1887
2015-01-30,34,1949
2015-01-31,14,1769
2015-02-01,7,1858
2015-02-02,8,2014
2015-02-03,10,1899
2015-02-04,7,1999
2015-02-05,53,1928
2015-02-06,38,1998
2015-02-07,27,1833
2015-02-08,28,1894
2015-02-09,22,2179
2015-02-10,24,1969
2015-02-11,85,2135
2015-02-12,916,2978
2015-02-13,247,3350
2015-02-14,152,3296
2015-02-15,76,3404
2015-02-16,91,3832
2015-02-17,59,3672
2015-02-18,47,3878
2015-02-19,46,3777
2015-02-20,52,3817
2015-02-21,46,3557
2015-02-22,44,3592
2015-02-23,31,3980
2015-02-24,36,3789
2015-02-25,36,3976
2015-02-26,31,3838
2015-02-27,32,3889
2015-02-28,26,3512
2015-03-01,22,3623
2015-03-02,13,3977
2015-03-03,6,3567
2015-03-04,6,3828
2015-03-05,2,3536
2015-03-06,4,3679
2015-03-07,7,3230
2015-03-08,3,3387
2015-03-09,10,3670
2015-03-10,3,3575
2015-03-11,9,3640
2015-03-12,7,3520
2015-03-13,5,3509
2015-03-14,2,3251
2015-03-15,7,3277
2015-03-16,2,3719
2015-03-17,5,3416
2015-03-18,8,3454
2015-03-19,9,3398
2015-03-20,11,3518
2015-03-21,11,3152
2015-03-22,10,3281
2015-03-23,11,3555
2015-03-24,63,3382
2015-03-25,41,3586
2015-03-26,30,3402
2015-03-27,23,3422
2015-03-28,37,3049
2015-03-29,17,3148
2015-03-30,38,3543
2015-03-31,330,3700
2015-04-01,101,3987
2015-04-02,59,3741
2015-04-03,55,3716
2015-04-04,48,3456
2015-04-05,38,3492
2015-04-06,33,3803
2015-04-07,36,3935
2015-04-08,32,3845
2015-04-09,22,3946
2015-04-10,25,3806
2015-04-11,261,3530
2015-04-12,169,3787
2015-04-13,105,4208
2015-04-14,78,4126
2015-04-15,46,4200
2015-04-16,51,4137
2015-04-17,54,4108
2015-04-18,43,3838
2015-04-19,43,3840
2015-04-20,36,4350
2015-04-21,8,3906
2015-04-22,11,4156
2015-04-23,13,3842
2015-04-24,7,3927
2015-04-25,8,3557
2015-04-26,9,3725
2015-04-27,5,4102
2015-04-28,3,3842
2015-04-29,5,4008
2015-04-30,2,3699
2015-05-01,5,3393
2015-05-02,3,3371
2015-05-03,5,3615
2015-05-04,0,3936
2015-05-05,4,3724
2015-05-06,9,3864
2015-05-07,4,3737
2015-05-08,4,3701
2015-05-09,7,3311
2015-05-10,10,3534
2015-05-11,3,3912
2015-05-12,7,3610
2015-05-13,2,3791
2015-05-14,10,3475
2015-05-15,12,3623
2015-05-16,6,3252
2015-05-17,6,3376
2015-05-18,2,3815
2015-05-19,5,3504
2015-05-20,4,3756
2015-05-21,9,3547
2015-05-22,9,3568
2015-05-23,6,3239
2015-05-24,1,3220
2015-05-25,9,3629
2015-05-26,10,3539
2015-05-27,8,3249
2015-05-28,4,1853
2015-05-29,4,4241
2015-05-30,2,2590
2015-05-31,6,3653
2015-06-01,3,3194
2015-06-02,4,3732
2015-06-03,1,3276
2015-06-04,9,3494
2015-06-05,8,3160
2015-06-06,4,3184
2015-06-07,9,3013
2015-06-08,4,3764
2015-06-09,12,3132
2015-06-10,9,3680
2015-06-11,8,3157
2015-06-12,3,3422
2015-06-13,7,2882
2015-06-14,8,3215
2015-06-15,2,2552
2015-06-16,2,3792
2015-06-17,6,2976
2015-06-18,6,3653
2015-06-19,5,2915
2015-06-20,9,3103
2015-06-21,5,2854
2015-06-22,61,3692
2015-06-23,46,3011
2015-06-24,22,3544
2015-06-25,26,3090
2015-06-26,29,3387
2015-06-27,24,2801
2015-06-28,15,3143
2015-06-29,54,3378
2015-06-30,558,3789
2015-07-01,219,4035
2015-07-02,132,4027
2015-07-03,88,3992
2015-07-04,68,3696
2015-07-05,59,3776
2015-07-06,78,4322
2015-07-07,60,4064
2015-07-08,63,4365
2015-07-09,54,4045
2015-07-10,46,4248
2015-07-11,38,3609
2015-07-12,54,3963
2015-07-13,52,4233
2015-07-14,39,4107
2015-07-15,36,4202
2015-07-16,34,4057
2015-07-17,20,4004
2015-07-18,30,3642
2015-07-19,27,3840
2015-07-20,10,4143
2015-07-21,8,3855
2015-07-22,5,4003
2015-07-23,8,3821
2015-07-24,6,3851
2015-07-25,9,3478
2015-07-26,13,3631
2015-07-27,5,3988
2015-07-28,7,3763
2015-07-29,5,3900
2015-07-30,9,3740
2015-07-31,15,3752
2015-08-01,9,3335
2015-08-02,5,3420
2015-08-03,8,3882
2015-08-04,7,3491
2015-08-05,9,3819
2015-08-06,10,3491
2015-08-07,7,3582
2015-08-08,8,3262
2015-08-09,8,3373
2015-08-10,5,3692
2015-08-11,9,3477
2015-08-12,9,3671
2015-08-13,11,3430
2015-08-14,9,3459
2015-08-15,12,3138
2015-08-16,9,3318
2015-08-17,5,3639
2015-08-18,3,3390
2015-08-19,7,3694
2015-08-20,11,3382
2015-08-21,10,3451
2015-08-22,11,3142
2015-08-23,5,3298
2015-08-24,4,3679
2015-08-25,7,3462
2015-08-26,7,3557
2015-08-27,6,3499
2015-08-28,5,3477
2015-08-29,8,3148
2015-08-30,5,3305
2015-08-31,3,3690
2015-09-01,5,3486
2015-09-02,8,3697
2015-09-03,5,3481
2015-09-04,3,3570
2015-09-05,5,3129
2015-09-06,3,3319
2015-09-07,6,3663
2015-09-08,7,3422
2015-09-09,7,3607
2015-09-10,7,3493
2015-09-11,2,3466
2015-09-12,10,3110
2015-09-13,6,3233
2015-09-14,4,3652
2015-09-15,10,3346
2015-09-16,6,3689
2015-09-17,8,3362
2015-09-18,80,3611
2015-09-19,53,3105
2015-09-20,55,3340
2015-09-21,58,3752
2015-09-22,564,4109
2015-09-23,172,4426
2015-09-24,104,4341
2015-09-25,76,4394
2015-09-26,58,4056
2015-09-27,68,4179
2015-09-28,72,4752
2015-09-29,45,4524
2015-09-30,37,4651
2015-10-01,33,4517
2015-10-02,41,4532
2015-10-03,38,4110
2015-10-04,44,4239
2015-10-05,32,4809
2015-10-06,18,4428
2015-10-07,29,4791
2015-10-08,29,4501
2015-10-09,24,4596
2015-10-10,24,4181
2015-10-11,27,4241
2015-10-12,14,4794
2015-10-13,5,4329
2015-10-14,15,4666
2015-10-15,13,4317
2015-10-16,9,4424
2015-10-17,9,3912
2015-10-18,11,4126
2015-10-19,10,4625
2015-10-20,7,4327
2015-10-21,4,4543
2015-10-22,12,4317
2015-10-23,9,4304
2015-10-24,7,3952
2015-10-25,8,4042
2015-10-26,9,4493
2015-10-27,8,4204
2015-10-28,10,4387
2015-10-29,7,4168
2015-10-30,12,4330
2015-10-31,10,3789
2015-11-01,14,4029
2015-11-02,7,4467
2015-11-03,31,4183
2015-11-04,33,4314
2015-11-05,30,4189
2015-11-06,277,4359
2015-11-07,155,3900
2015-11-08,91,4081
2015-11-09,88,4435
2015-11-10,71,4107
2015-11-11,43,4140
2015-11-12,40,4018
2015-11-13,23,3975
2015-11-14,43,3510
2015-11-15,37,3543
2015-11-16,49,3971
2015-11-17,61,3521
2015-11-18,35,3720
2015-11-19,26,3453
2015-11-20,21,3387
2015-11-21,21,2998
2015-11-22,22,3083
2015-11-23,15,3398
2015-11-24,14,3029
2015-11-25,8,3143
2015-11-26,11,2903
2015-11-27,8,2951
2015-11-28,6,2552
2015-11-29,12,2689
2015-11-30,7,2987
2015-12-01,11,2775
2015-12-02,14,2972
2015-12-03,7,2790
2015-12-04,4,2911
2015-12-05,9,2494
2015-12-06,12,2612
2015-12-07,12,2942
2015-12-08,5,2709
2015-12-09,4,2907
2015-12-10,12,2666
2015-12-11,7,2826
2015-12-12,13,2432
2015-12-13,5,2630
2015-12-14,14,2878
2015-12-15,10,2700
2015-12-16,11,2877
2015-12-17,10,2640
2015-12-18,9,2732
2015-12-19,7,2459
2015-12-20,14,2480
2015-12-21,2,2847
2015-12-22,7,2503
2015-12-23,5,2660
2015-12-24,4,2254
2015-12-25,6,2363
2015-12-26,8,2281
2015-12-27,2,2440
2015-12-28,2,2550
2015-12-29,10,2493
2015-12-30,14,2499
2015-12-31,8,2067
2016-01-01,10,2372
2016-01-02,14,2323
2016-01-03,14,2460
2016-01-04,10,2707
2016-01-05,9,2515
2016-01-06,13,2554
2016-01-07,11,2560
2016-01-08,6,2497
2016-01-09,11,2386
2016-01-10,11,2328
2016-01-11,13,2786
2016-01-12,7,2472
2016-01-13,5,2750
2016-01-14,6,2421
2016-01-15,5,2592
2016-01-16,6,2319
2016-01-17,11,2411
2016-01-18,3,2657
2016-01-19,4,2427
2016-01-20,7,2637
2016-01-21,7,2436
2016-01-22,8,2556
2016-01-23,12,2275
2016-01-24,8,2335
2016-01-25,3,2689
2016-01-26,3,2447
2016-01-27,9,2624
2016-01-28,7,2439
2016-01-29,5,2579
2016-01-30,10,2256
2016-01-31,14,2344
2016-02-01,13,2638
2016-02-02,7,2398
2016-02-03,11,2577
2016-02-04,17,2400
2016-02-05,5,2517
2016-02-06,24,2184
2016-02-07,25,2272
2016-02-08,17,2605
2016-02-09,49,2384
2016-02-10,36,2597
2016-02-11,52,2273
2016-02-12,428,2901
2016-02-13,196,2558
2016-02-14,142,2791
2016-02-15,90,3068
2016-02-16,78,2893
2016-02-17,70,3080
2016-02-18,93,2904
2016-02-19,46,3021
2016-02-20,61,2741
2016-02-21,56,2750
2016-02-22,58,3197
2016-02-23,39,2860
2016-02-24,42,3174
2016-02-25,32,2909
2016-02-26,47,3089
2016-02-27,39,2657
2016-02-28,47,2853
2016-02-29,37,3116
2016-03-01,24,2929
2016-03-02,23,3056
2016-03-03,20,2841
2016-03-04,14,2954
2016-03-05,13,2675
2016-03-06,9,2667
2016-03-07,6,3058
2016-03-08,12,2699
2016-03-09,14,3102
2016-03-10,9,2807
2016-03-11,9,2939
2016-03-12,11,2590
2016-03-13,14,2648
2016-03-14,9,3041
2016-03-15,19,2788
2016-03-16,24,2989
2016-03-17,11,2795
2016-03-18,19,2915
2016-03-19,20,2603
2016-03-20,25,2618
2016-03-21,15,3034
2016-03-22,17,2711
2016-03-23,250,3149
2016-03-24,108,2871
2016-03-25,78,2964
2016-03-26,52,2703
2016-03-27,56,2701
2016-03-28,40,3015
2016-03-29,47,3117
2016-03-30,38,3049
2016-03-31,31,3139
2016-04-01,38,3043
2016-04-02,36,2790
2016-04-03,27,2841
2016-04-04,22,3328
2016-04-05,31,2933
2016-04-06,26,3207
2016-04-07,24,2902
2016-04-08,24,3148
2016-04-09,31,2597
2016-04-10,18,2588
2016-04-11,24,3360
2016-04-12,33,2891
2016-04-13,24,3257
2016-04-14,17,2865
2016-04-15,9,3197
2016-04-16,14,2648
2016-04-17,16,2903
2016-04-18,10,3136
2016-04-19,12,3046
2016-04-20,15,3056
2016-04-21,13,2998
2016-04-22,13,2995
2016-04-23,12,2698
2016-04-24,14,2779
2016-04-25,10,3258
2016-04-26,13,2853
2016-04-27,21,3135
2016-04-28,14,2853
2016-04-29,12,2907
2016-04-30,6,2564
2016-05-01,7,2646
2016-05-02,7,2943
2016-05-03,11,2884
2016-05-04,8,3064
2016-05-05,11,2721
2016-05-06,11,2896
2016-05-07,9,2522
2016-05-08,19,2712
2016-05-09,13,3064
2016-05-10,15,2836
2016-05-11,9,3051
2016-05-12,12,2848
2016-05-13,14,2926
2016-05-14,6,2551
2016-05-15,9,2628
2016-05-16,6,2937
2016-05-17,8,2953
2016-05-18,10,2972
2016-05-19,8,2974
2016-05-20,2,3019
2016-05-21,9,2682
2016-05-22,11,2947
2016-05-23,12,3435
2016-05-24,7,3314
2016-05-25,13,3628
2016-05-26,7,3475
2016-05-27,10,3571
2016-05-28,9,3350
2016-05-29,9,3754
2016-05-30,12,4190
2016-05-31,5,4144
2016-06-01,6,4379
2016-06-02,8,4248
2016-06-03,9,4223
2016-06-04,9,3841
2016-06-05,8,4009
2016-06-06,11,4541
2016-06-07,6,4227
2016-06-08,6,4368
2016-06-09,8,4183
2016-06-10,7,4167
2016-06-11,11,3760
2016-06-12,8,3940
2016-06-13,6,4554
2016-06-14,9,4126
2016-06-15,14,4382
2016-06-16,8,4172
2016-06-17,11,4082
2016-06-18,10,3698
2016-06-19,6,3913
2016-06-20,6,4300
2016-06-21,4,4213
2016-06-22,6,4217
2016-06-23,7,4069
2016-06-24,3,4078
2016-06-25,6,3609
2016-06-26,6,3798
2016-06-27,31,4436
2016-06-28,28,4033
2016-06-29,27,4338
2016-06-30,29,4044
2016-07-01,32,4207
2016-07-02,15,3633
2016-07-03,26,3888
2016-07-04,303,4803
2016-07-05,116,4542
2016-07-06,71,4899
2016-07-07,54,4639
2016-07-08,52,4651
2016-07-09,48,4278
2016-07-10,29,4397
2016-07-11,29,5091
2016-07-12,31,4544
2016-07-13,32,5001
2016-07-14,30,4528
2016-07-15,23,4761
2016-07-16,37,4127
2016-07-17,31,4463
2016-07-18,27,4919
2016-07-19,18,4650
2016-07-20,27,4777
2016-07-21,18,4630
2016-07-22,15,4612
2016-07-23,13,4230
2016-07-24,13,4307
2016-07-25,10,4703
2016-07-26,11,4401
2016-07-27,10,4636
2016-07-28,10,4361
2016-07-29,9,4392
2016-07-30,6,3886
2016-07-31,8,4176
2016-08-01,6,4649
2016-08-02,8,4316
2016-08-03,4,4545
2016-08-04,10,4279
2016-08-05,10,4368
2016-08-06,11,3846
2016-08-07,3,4073
2016-08-08,6,4526
2016-08-09,10,4208
2016-08-10,10,4447
2016-08-11,6,4239
2016-08-12,4,4247
2016-08-13,5,3820
2016-08-14,11,3895
2016-08-15,11,4221
2016-08-16,9,4215
2016-08-17,4,4298
2016-08-18,5,4153
2016-08-19,9,4160
2016-08-20,5,3763
2016-08-21,2,4003
2016-08-22,7,4430
2016-08-23,6,4181
2016-08-24,9,4306
2016-08-25,9,4197
2016-08-26,8,4164
2016-08-27,8,3690
2016-08-28,8,3940
2016-08-29,9,4551
2016-08-30,7,4244
2016-08-31,9,4442
2016-09-01,10,4264
2016-09-02,13,4357
2016-09-03,5,3766
2016-09-04,7,3964
2016-09-05,16,4509
2016-09-06,8,4152
2016-09-07,11,4477
2016-09-08,18,4241
2016-09-09,15,4349
2016-09-10,10,3799
2016-09-11,8,4093
2016-09-12,15,4484
2016-09-13,31,4212
2016-09-14,245,4785
2016-09-15,90,4671
2016-09-16,77,4777
2016-09-17,68,4286
2016-09-18,49,4545
2016-09-19,50,5128
2016-09-20,34,4715
2016-09-21,21,5119
2016-09-22,29,4716
2016-09-23,38,4887
2016-09-24,34,4326
2016-09-25,26,4517
2016-09-26,31,5108
2016-09-27,28,4716
2016-09-28,31,5043
2016-09-29,23,4723
2016-09-30,31,4883
2016-10-01,18,4325
2016-10-02,20,4469
2016-10-03,16,5059
2016-10-04,20,4744
2016-10-05,14,4970
2016-10-06,15,4782
2016-10-07,10,4711
2016-10-08,10,4172
2016-10-09,10,4410
2016-10-10,10,4875
2016-10-11,12,4593
2016-10-12,10,4826
2016-10-13,11,4513
2016-10-14,9,4633
2016-10-15,7,4099
2016-10-16,11,4278
2016-10-17,12,4864
2016-10-18,15,4464
2016-10-19,21,4789
2016-10-20,17,4466
2016-10-21,13,4716
2016-10-22,13,4121
2016-10-23,22,4280
2016-10-24,14,4829
2016-10-25,20,4478
2016-10-26,21,4794
2016-10-27,166,4676
2016-10-28,61,4789
2016-10-29,62,4481
2016-10-30,46,4558
2016-10-31,41,5028
2016-11-01,37,4723
2016-11-02,30,5272
2016-11-03,27,4704
2016-11-04,35,5043
2016-11-05,32,4412
2016-11-06,25,4781
2016-11-07,34,5212
2016-11-08,26,4836
2016-11-09,25,5154
2016-11-10,18,4881
2016-11-11,18,4934
2016-11-12,20,4459
2016-11-13,24,4692
2016-11-14,12,5298
2016-11-15,17,4651
2016-11-16,7,5133
2016-11-17,13,4690
2016-11-18,10,4904
2016-11-19,15,4299
2016-11-20,11,4524
2016-11-21,11,5077
2016-11-22,9,4679
2016-11-23,11,4968
2016-11-24,9,4692
2016-11-25,11,4753
2016-11-26,13,4338
2016-11-27,13,4435
2016-11-28,12,5069
2016-11-29,9,4590
2016-11-30,11,4885
2016-12-01,11,4706
2016-12-02,19,4746
2016-12-03,15,4250
2016-12-04,10,4467
2016-12-05,9,5041
2016-12-06,4,4563
2016-12-07,9,4923
2016-12-08,5,4561
2016-12-09,6,4636
2016-12-10,14,4261
2016-12-11,13,4342
2016-12-12,14,5009
2016-12-13,11,4478
2016-12-14,6,4821
2016-12-15,7,4479
2016-12-16,9,4662
2016-12-17,8,4192
2016-12-18,14,4212
2016-12-19,11,4944
2016-12-20,11,4446
2016-12-21,19,4685
2016-12-22,8,4448
2016-12-23,14,4398
2016-12-24,11,3760
2016-12-25,7,3985
2016-12-26,13,4077
2016-12-27,10,4383
2016-12-28,14,4266
2016-12-29,13,4328
2016-12-30,17,4188
2016-12-31,7,3528
2017-01-01,6,4097
2017-01-02,12,4340
2017-01-03,11,4387
2017-01-04,8,4403
2017-01-05,6,4378
2017-01-06,13,4179
2017-01-07,14,4137
2017-01-08,14,4168
2017-01-09,13,4679
2017-01-10,11,4263
2017-01-11,11,4649
2017-01-12,9,4270
2017-01-13,13,4518
2017-01-14,15,3926
2017-01-15,18,4105
2017-01-16,13,4656
2017-01-17,12,4232
2017-01-18,8,4504
2017-01-19,15,4309
2017-01-20,4,4377
2017-01-21,9,3949
2017-01-22,16,4053
2017-01-23,11,4536
2017-01-24,35,4290
2017-01-25,31,4560
2017-01-26,21,4307
2017-01-27,12,4409
2017-01-28,14,4039
2017-01-29,32,4065
2017-01-30,26,4713
2017-01-31,23,4253
2017-02-01,22,4627
2017-02-02,14,4253
2017-02-03,11,4523
2017-02-04,15,3975
2017-02-05,24,4157
2017-02-06,19,4644
2017-02-07,25,4277
2017-02-08,27,4643
2017-02-09,326,4707
2017-02-10,136,5050
2017-02-11,90,4653
2017-02-12,91,4797
2017-02-13,66,5465
2017-02-14,50,5017
2017-02-15,46,5372
2017-02-16,45,5077
2017-02-17,28,5303
2017-02-18,33,4693
2017-02-19,51,4941
2017-02-20,31,5569
2017-02-21,35,5089
2017-02-22,21,5428
2017-02-23,33,5066
2017-02-24,23,5222
2017-02-25,38,4818
2017-02-26,32,4899
2017-02-27,29,5439
2017-02-28,41,5103
2017-03-01,26,5433
2017-03-02,21,5087
2017-03-03,22,5279
2017-03-04,20,4671
2017-03-05,13,4959
2017-03-06,7,5334
2017-03-07,11,4974
2017-03-08,10,5150
2017-03-09,14,4925
2017-03-10,13,4979
2017-03-11,12,4535
2017-03-12,10,4632
2017-03-13,7,5238
2017-03-14,8,4838
2017-03-15,10,5103
2017-03-16,11,4838
2017-03-17,16,4887
2017-03-18,15,4405
2017-03-19,12,4620
2017-03-20,5,5155
2017-03-21,12,4674
2017-03-22,13,5048
2017-03-23,1,4701
2017-03-24,11,4911
2017-03-25,9,4337
2017-03-26,16,4393
2017-03-27,79,5067
2017-03-28,37,4633
2017-03-29,18,4955
2017-03-30,21,4621
2017-03-31,11,4789
2017-04-01,19,4271
2017-04-02,26,4508
2017-04-03,146,5283
2017-04-04,71,4922
2017-04-05,72,5385
2017-04-06,38,5050
2017-04-07,38,5223
2017-04-08,40,4679
2017-04-09,39,4777
2017-04-10,33,5436
2017-04-11,32,5011
2017-04-12,31,5354
2017-04-13,29,4936
2017-04-14,27,4927
2017-04-15,24,4631
2017-04-16,25,4491
2017-04-17,21,5114
2017-04-18,14,5243
2017-04-19,24,5235
2017-04-20,13,5168
2017-04-21,19,4792
2017-04-22,14,30
2017-04-23,24,7203
2017-04-24,5,3561
2017-04-25,14,6145
2017-04-26,12,4069
2017-04-27,4,5760
2017-04-28,7,4200
2017-04-29,7,5037
2017-04-30,11,3694
2017-05-01,7,5105
2017-05-02,9,4612
2017-05-03,8,5201
2017-05-04,4,4651
2017-05-05,6,5029
2017-05-06,11,4073
2017-05-07,14,4729
2017-05-08,14,4753
2017-05-09,9,5099
2017-05-10,5,4712
2017-05-11,5,5054
2017-05-12,13,4526
2017-05-13,18,4629
2017-05-14,6,4221
2017-05-15,10,5323
2017-05-16,8,4405
2017-05-17,10,5185
2017-05-18,18,4431
2017-05-19,9,5013
2017-05-20,9,4051
2017-05-21,7,4589
2017-05-22,11,4803
2017-05-23,11,4687
2017-05-24,6,4825
2017-05-25,10,4585
2017-05-26,15,4512
2017-05-27,15,4246
2017-05-28,12,4293
2017-05-29,15,5082
2017-05-30,8,4413
2017-05-31,11,5006
2017-06-01,11,4476
2017-06-02,10,4658
2017-06-03,9,3974
2017-06-04,7,4308
2017-06-05,8,4624
2017-06-06,6,4729
2017-06-07,4,4622
2017-06-08,11,4713
2017-06-09,6,4335
2017-06-10,9,4068
2017-06-11,9,4115
2017-06-12,9,4883
2017-06-13,5,4321
2017-06-14,9,4700
2017-06-15,9,4311
2017-06-16,8,4450
2017-06-17,10,3891
2017-06-18,9,4274
2017-06-19,6,4693
2017-06-20,3,4303
2017-06-21,3,4576
2017-06-22,5,4298
2017-06-23,6,4371
2017-06-24,6,3888
2017-06-25,10,4113
2017-06-26,6,4615
2017-06-27,11,4207
2017-06-28,21,4643
2017-06-29,17,4293
2017-06-30,9,4534
2017-07-01,13,3852
2017-07-02,18,4204
2017-07-03,23,4601
2017-07-04,216,4627
2017-07-05,75,4905
2017-07-06,70,4776
2017-07-07,49,4855
2017-07-08,42,4321
2017-07-09,45,4496
2017-07-10,38,5211
2017-07-11,30,4790
2017-07-12,38,5126
2017-07-13,24,4715
2017-07-14,23,4763
2017-07-15,23,4338
2017-07-16,23,4603
2017-07-17,20,5085
2017-07-18,20,4678
2017-07-19,17,5057
2017-07-20,22,4675
2017-07-21,21,6582
2017-07-22,22,4265
2017-07-23,20,5226
2017-07-24,7,5238
2017-07-25,16,5252
2017-07-26,6,4103
2017-07-27,8,5297
2017-07-28,7,4602
2017-07-29,11,4536
2017-07-30,9,4431
2017-07-31,6,5222
2017-08-01,10,4691
2017-08-02,6,4607
2017-08-03,9,4624
2017-08-04,6,4609
2017-08-05,8,4076
2017-08-06,8,4366
2017-08-07,8,4892
2017-08-08,7,4642
2017-08-09,9,4443
2017-08-10,10,4543
2017-08-11,5,4410
2017-08-12,11,4126
2017-08-13,7,4105
2017-08-14,15,4719
2017-08-15,8,4409
2017-08-16,8,4377
2017-08-17,3,4329
2017-08-18,8,4317
2017-08-19,10,3975
2017-08-20,6,4185
2017-08-21,7,4676
2017-08-22,6,4363
2017-08-23,6,3688
2017-08-24,8,4322
2017-08-25,3,4063
2017-08-26,17,3774
2017-08-27,13,4005
2017-08-28,7,4578
2017-08-29,8,4211
2017-08-30,9,4136
2017-08-31,10,4219
2017-09-01,6,4093
2017-09-02,2,3799
2017-09-03,11,3975
2017-09-04,7,4429
2017-09-05,6,4208
2017-09-06,6,3228
2017-09-07,24,4065
2017-09-08,11,3904
2017-09-09,10,3546
2017-09-10,7,3775
2017-09-11,18,4288
2017-09-12,16,4018
2017-09-13,17,3293
2017-09-14,175,4291
2017-09-15,79,5003
2017-09-16,60,4825
2017-09-17,48,5159
2017-09-18,33,5644
2017-09-19,29,5521
2017-09-20,79,5558
2017-09-21,138,5481
2017-09-22,76,5418
2017-09-23,56,4914
2017-09-24,64,5125
2017-09-25,58,5772
2017-09-26,34,5498
2017-09-27,49,5493
2017-09-28,32,5438
2017-09-29,34,5399
2017-09-30,25,5016
2017-10-01,62,5073
2017-10-02,45,5617
2017-10-03,31,5551
2017-10-04,32,5542
2017-10-05,20,5416
2017-10-06,15,5314
2017-10-07,27,5036
2017-10-08,18,4990
2017-10-09,15,5842
2017-10-10,12,5217
2017-10-11,19,5361
2017-10-12,10,5103
2017-10-13,19,5143
2017-10-14,17,4660
2017-10-15,18,4770
2017-10-16,12,5415
2017-10-17,9,5106
2017-10-18,12,5125
2017-10-19,12,5115
2017-10-20,11,4927
2017-10-21,10,4612
2017-10-22,12,4640
2017-10-23,15,5282
2017-10-24,10,5028
2017-10-25,6,5045
2017-10-26,13,4788
2017-10-27,21,4851
2017-10-28,17,4515
2017-10-29,17,4804
2017-10-30,15,5265
2017-10-31,11,4861
2017-11-01,11,4858
2017-11-02,32,5050
2017-11-03,15,4879
2017-11-04,14,4502
2017-11-05,18,4779
2017-11-06,11,3629
2017-11-07,16,5647
2017-11-08,162,5384
2017-11-09,75,5669
2017-11-10,59,5379
2017-11-11,51,5107
2017-11-12,38,5200
2017-11-13,27,5954
2017-11-14,40,5554
2017-11-15,71,5242
2017-11-16,63,4906
2017-11-17,84,4238
2017-11-18,56,3640
2017-11-19,59,3684
2017-11-20,50,4021
2017-11-21,33,3872
2017-11-22,38,3748
2017-11-23,41,3764
2017-11-24,30,3660
2017-11-25,22,3250
2017-11-26,24,3393
2017-11-27,22,3826
2017-11-28,18,3558
2017-11-29,17,3544
2017-11-30,14,3445
2017-12-01,27,3386
2017-12-02,23,3222
2017-12-03,15,3314
2017-12-04,14,3715
2017-12-05,14,3409
2017-12-06,17,3388
2017-12-07,11,3398
2017-12-08,11,3300
2017-12-09,9,3174
2017-12-10,14,3160
2017-12-11,14,3516
2017-12-12,16,3349
2017-12-13,20,3146
2017-12-14,20,3071
2017-12-15,12,3111
2017-12-16,12,2886
2017-12-17,22,2936
2017-12-18,15,3297
2017-12-19,10,3069
2017-12-20,17,3039
2017-12-21,20,3066
2017-12-22,14,2931
2017-12-23,14,2759
2017-12-24,12,2602
2017-12-25,14,2654
2017-12-26,17,2823
2017-12-27,9,2952
2017-12-28,11,2848
2017-12-29,10,2812
2017-12-30,13,2761
2017-12-31,8,2343
2018-01-01,8,2743
2018-01-02,5,2940
2018-01-03,12,3003
2018-01-04,14,2923
2018-01-05,20,2928
2018-01-06,16,2756
2018-01-07,16,2829
2018-01-08,14,3076
2018-01-09,13,2955
2018-01-10,12,3004
2018-01-11,15,2963
2018-01-12,7,2895
2018-01-13,14,2746
2018-01-14,8,2678
2018-01-15,14,3054
2018-01-16,14,2922
2018-01-17,16,2958
2018-01-18,15,2872
2018-01-19,7,2873
2018-01-20,13,2566
2018-01-21,19,2701
2018-01-22,13,3048
2018-01-23,17,2914
2018-01-24,30,2882
2018-01-25,13,2890
2018-01-26,6,2855
2018-01-27,17,2689
2018-01-28,12,2667
2018-01-29,12,3054
2018-01-30,17,2937
2018-01-31,13,2904
2018-02-01,9,2883
2018-02-02,14,2829
2018-02-03,9,2649
2018-02-04,6,2664